{"data":{"norad_id":68346,"intl_designator":"2026-059AB","name":"STARLINK-37169","alt_names":[],"object_type":"PAYLOAD","status":"ACTIVE","operator":null,"country":"US","launch_date":"2026-03-22","launch_site_code":"AFETR","launch_vehicle":null,"mission":null,"orbit_class":"UNKNOWN","rcs_meters":null,"size_class":null,"mass_kg":null,"dimensions":null,"purposes":["comms"],"wikipedia_slug":null,"has_3d_model":false,"image_url":null,"decayed_at":null,"tle_current":{"epoch":"2026-09-19T02:46:02.666496Z","epoch_age_seconds":168045,"freshness":"FRESH","line1":"1 68346U 26059AB  26262.11530864  .00025064  00000+0  74998-3 0  9991","line2":"2 68346  53.1588 162.4484 0000757  92.0902 268.0187 15.34419904 27897","mean_motion":15.34419904,"eccentricity":7.57e-5,"inclination_deg":53.1588,"raan_deg":162.4484,"arg_perigee_deg":92.0902,"mean_anomaly_deg":268.0187,"bstar":0.00074998,"rev_number":2789,"period_min":93.846540718492,"perigee_km":462.12623483612,"apogee_km":463.16192909193,"semimajor_km":6840.781081964,"source":"CELESTRAK","updated_at":"2026-09-20T09:00:43.890489Z"}}}